Back to catalog

STARLINK-34454

AliveCommunicationsVLEO
NORAD 64357·PAYLOAD·🇺🇸 United States

Launched Jun 13, 2025 from Vandenberg Space Force Base

Loading…

Next Passes (next 24 hours)

TLE

FreshSource: CelesTrak SupGP

Epoch: Sep 14, 2026, 22:40 UTC

1 64357C 25126P   26257.94493056  .00115030  00000+0  39032-2 0  2578
2 64357  69.9993 275.6582 0003520 269.7595 355.8507 15.30328269    13

Track STARLINK-34454 in real time with AllMySat

Download on the App Store